Location: Dodgeville, WI 53533, USA
(43.0344°N, 90.0900°W)
Time: 10:56:26
(UTC-06:00)

BlueWalker 3 - Pass Details

Date: 12 November 2025
Orbit: 455 x 462 km, 53.2° (Epoch: 11 December)

Event Time Altitude Azimuth Distance (km) Brightness Sun altitude
Exits shadow 05:05:45 10° 198° (SSW) 1,575 4.3 -19.0°
Drops below altitude 10° 05:05:52 10° 197° (SSW) 1,598 4.4 -19.0°
Sets 05:08:43 0° 172° (S) 2,464 5.6 -18.5°
